Time,TemperatureF,DewpointF,PressureIn,WindDirection,WindDirectionDegrees,WindSpeedMPH,WindSpeedGustMPH,Humidity,HourlyPrecipIn,Conditions,Clouds,dailyrainin,SoftwareType,DateUTC
2013-04-29 00:02:00,50.0,-99.9,-100.00,SW,227,4.0,9.0,-999,-99.99,,,-99.99,,2013-04-29 05:02:00,
2013-04-29 00:12:00,50.0,-99.9,-100.00,SW,227,4.0,9.0,-999,-99.99,,,-99.99,,2013-04-29 05:12:00,
2013-04-29 00:23:00,50.0,-99.9,-100.00,West,275,5.0,8.0,-999,-99.99,,,-99.99,,2013-04-29 05:23:00,
2013-04-29 00:32:00,49.0,-99.9,-100.00,West,279,4.0,9.0,-999,-99.99,,,-99.99,,2013-04-29 05:32:00,
2013-04-29 00:42:00,49.0,-99.9,-100.00,West,279,4.0,9.0,-999,-99.99,,,-99.99,,2013-04-29 05:42:00,
2013-04-29 00:52:00,49.0,-99.9,-100.00,West,279,3.0,7.0,-999,-99.99,,,-99.99,,2013-04-29 05:52:00,
2013-04-29 01:02:00,49.0,-99.9,-100.00,WSW,248,5.0,6.0,-999,-99.99,,,-99.99,,2013-04-29 06:02:00,
2013-04-29 01:12:00,49.0,-99.9,-100.00,WSW,248,5.0,6.0,-999,-99.99,,,-99.99,,2013-04-29 06:12:00,
2013-04-29 01:22:00,49.0,-99.9,-100.00,West,267,3.0,5.0,-999,-99.99,,,-99.99,,2013-04-29 06:22:00,
2013-04-29 01:32:00,49.0,-99.9,-100.00,SW,233,0.0,6.0,-999,-99.99,,,-99.99,,2013-04-29 06:32:00,
2013-04-29 01:42:00,49.0,-99.9,-100.00,SW,233,0.0,6.0,-999,-99.99,,,-99.99,,2013-04-29 06:42:00,
2013-04-29 01:52:00,48.0,-99.9,-100.00,West,270,0.0,3.0,-999,-99.99,,,-99.99,,2013-04-29 06:52:00,
2013-04-29 02:02:00,48.0,-99.9,-100.00,West,270,0.0,0.0,-999,-99.99,,,-99.99,,2013-04-29 07:02:00,
2013-04-29 02:11:00,48.0,-99.9,-100.00,West,270,0.0,0.0,-999,-99.99,,,-99.99,,2013-04-29 07:11:00,
2013-04-29 02:22:00,48.0,-99.9,-100.00,WSW,240,5.0,5.0,-999,-99.99,,,-99.99,,2013-04-29 07:22:00,
2013-04-29 02:32:00,48.0,-99.9,-100.00,West,265,6.0,6.0,-999,-99.99,,,-99.99,,2013-04-29 07:32:00,
2013-04-29 02:42:00,48.0,-99.9,-100.00,West,265,6.0,6.0,-999,-99.99,,,-99.99,,2013-04-29 07:42:00,
2013-04-29 02:52:00,48.0,-99.9,-100.00,WSW,253,6.0,7.0,-999,-99.99,,,-99.99,,2013-04-29 07:52:00,
2013-04-29 03:03:00,48.0,-99.9,-100.00,West,279,0.0,8.0,-999,-99.99,,,-99.99,,2013-04-29 08:03:00,
2013-04-29 03:11:00,48.0,-99.9,-100.00,West,279,0.0,8.0,-999,-99.99,,,-99.99,,2013-04-29 08:11:00,
2013-04-29 03:22:00,47.0,-99.9,-100.00,WSW,250,0.0,6.0,-999,-99.99,,,-99.99,,2013-04-29 08:22:00,
2013-04-29 03:32:00,47.0,-99.9,-100.00,WNW,284,0.0,7.0,-999,-99.99,,,-99.99,,2013-04-29 08:32:00,
2013-04-29 03:42:00,47.0,-99.9,-100.00,WNW,284,0.0,7.0,-999,-99.99,,,-99.99,,2013-04-29 08:42:00,
2013-04-29 03:52:00,47.0,-99.9,-100.00,WSW,246,3.0,6.0,-999,-99.99,,,-99.99,,2013-04-29 08:52:00,
2013-04-29 04:02:00,47.0,-99.9,-100.00,SSW,212,0.0,8.0,-999,-99.99,,,-99.99,,2013-04-29 09:02:00,
2013-04-29 04:12:00,47.0,-99.9,-100.00,SSW,212,0.0,8.0,-999,-99.99,,,-99.99,,2013-04-29 09:12:00,
2013-04-29 04:22:00,47.0,-99.9,-100.00,WSW,237,0.0,7.0,-999,-99.99,,,-99.99,,2013-04-29 09:22:00,
2013-04-29 04:33:00,46.0,-99.9,-100.00,WSW,237,0.0,6.0,-999,-99.99,,,-99.99,,2013-04-29 09:33:00,
2013-04-29 04:42:00,46.0,-99.9,-100.00,WSW,237,0.0,6.0,-999,-99.99,,,-99.99,,2013-04-29 09:42:00,
2013-04-29 04:53:00,46.0,-99.9,-100.00,WSW,258,4.0,6.0,-999,-99.99,,,-99.99,,2013-04-29 09:53:00,
2013-04-29 05:03:00,46.0,-99.9,-100.00,WSW,241,0.0,7.0,-999,-99.99,,,-99.99,,2013-04-29 10:03:00,
2013-04-29 05:12:00,46.0,-99.9,-100.00,WSW,241,0.0,7.0,-999,-99.99,,,-99.99,,2013-04-29 10:12:00,
2013-04-29 05:23:00,46.0,-99.9,-100.00,SW,233,0.0,7.0,-999,-99.99,,,-99.99,,2013-04-29 10:23:00,
2013-04-29 05:32:00,47.0,-99.9,-100.00,SW,226,2.0,6.0,-999,-99.99,,,-99.99,,2013-04-29 10:32:00,
2013-04-29 05:42:00,47.0,-99.9,-100.00,SW,226,2.0,6.0,-999,-99.99,,,-99.99,,2013-04-29 10:42:00,
2013-04-29 05:53:00,47.0,-99.9,-100.00,WSW,253,0.0,5.0,-999,-99.99,,,-99.99,,2013-04-29 10:53:00,
2013-04-29 06:03:00,47.0,-99.9,-100.00,SW,232,0.0,5.0,-999,-99.99,,,-99.99,,2013-04-29 11:03:00,
2013-04-29 06:12:00,47.0,-99.9,-100.00,SW,232,0.0,5.0,-999,-99.99,,,-99.99,,2013-04-29 11:12:00,
2013-04-29 06:22:00,45.0,-99.9,-100.00,SW,232,0.0,0.0,-999,-99.99,,,-99.99,,2013-04-29 11:22:00,
2013-04-29 06:32:00,43.0,-99.9,-100.00,SW,232,0.0,0.0,-999,-99.99,,,-99.99,,2013-04-29 11:32:00,
2013-04-29 06:42:00,43.0,-99.9,-100.00,SW,232,0.0,0.0,-999,-99.99,,,-99.99,,2013-04-29 11:42:00,
2013-04-29 06:52:00,46.0,-99.9,-100.00,SW,232,0.0,0.0,-999,-99.99,,,-99.99,,2013-04-29 11:52:00,
2013-04-29 07:02:00,49.0,-99.9,-100.00,SW,232,0.0,0.0,-999,-99.99,,,-99.99,,2013-04-29 12:02:00,
2013-04-29 07:12:00,49.0,-99.9,-100.00,SW,232,0.0,0.0,-999,-99.99,,,-99.99,,2013-04-29 12:12:00,
2013-04-29 07:22:00,53.0,-99.9,-100.00,SW,232,0.0,0.0,-999,-99.99,,,-99.99,,2013-04-29 12:22:00,
2013-04-29 07:32:00,55.0,-99.9,-100.00,SSW,212,3.0,5.0,-999,-99.99,,,-99.99,,2013-04-29 12:32:00,
2013-04-29 07:42:00,55.0,-99.9,-100.00,SSW,212,3.0,5.0,-999,-99.99,,,-99.99,,2013-04-29 12:42:00,
2013-04-29 07:52:00,60.0,-99.9,-100.00,South,170,0.0,6.0,-999,-99.99,,,-99.99,,2013-04-29 12:52:00,
2013-04-29 08:01:00,62.0,-99.9,-100.00,SSW,206,3.0,5.0,-999,-99.99,,,-99.99,,2013-04-29 13:01:00,
2013-04-29 08:11:00,62.0,-99.9,-100.00,SSW,206,3.0,5.0,-999,-99.99,,,-99.99,,2013-04-29 13:11:00,
2013-04-29 08:22:00,61.0,-99.9,-100.00,South,184,4.0,6.0,-999,-99.99,,,-99.99,,2013-04-29 13:22:00,
2013-04-29 08:32:00,61.0,-99.9,-100.00,South,185,7.0,7.0,-999,-99.99,,,-99.99,,2013-04-29 13:32:00,
2013-04-29 08:42:00,61.0,-99.9,-100.00,South,185,7.0,7.0,-999,-99.99,,,-99.99,,2013-04-29 13:42:00,
2013-04-29 08:52:00,63.0,-99.9,-100.00,South,180,3.0,7.0,-999,-99.99,,,-99.99,,2013-04-29 13:52:00,
2013-04-29 09:02:00,63.0,-99.9,-100.00,SSW,192,9.0,9.0,-999,-99.99,,,-99.99,,2013-04-29 14:02:00,
2013-04-29 09:12:00,63.0,-99.9,-100.00,SSW,192,9.0,9.0,-999,-99.99,,,-99.99,,2013-04-29 14:12:00,
2013-04-29 09:22:00,65.0,-99.9,-100.00,SSW,194,7.0,8.0,-999,-99.99,,,-99.99,,2013-04-29 14:22:00,
2013-04-29 09:32:00,67.0,-99.9,-100.00,SSW,199,6.0,9.0,-999,-99.99,,,-99.99,,2013-04-29 14:32:00,
2013-04-29 09:42:00,67.0,-99.9,-100.00,SSW,199,6.0,9.0,-999,-99.99,,,-99.99,,2013-04-29 14:42:00,
2013-04-29 09:52:00,67.0,-99.9,-100.00,South,189,7.0,11.0,-999,-99.99,,,-99.99,,2013-04-29 14:52:00,
2013-04-29 10:02:00,68.0,-99.9,-100.00,South,184,5.0,10.0,-999,-99.99,,,-99.99,,2013-04-29 15:02:00,
2013-04-29 10:12:00,68.0,-99.9,-100.00,South,184,5.0,10.0,-999,-99.99,,,-99.99,,2013-04-29 15:12:00,
2013-04-29 10:22:00,70.0,-99.9,-100.00,SSE,168,5.0,11.0,-999,-99.99,,,-99.99,,2013-04-29 15:22:00,
2013-04-29 10:33:00,68.0,-99.9,-100.00,South,177,8.0,12.0,-999,-99.99,,,-99.99,,2013-04-29 15:33:00,
2013-04-29 10:43:00,68.0,-99.9,-100.00,South,177,8.0,12.0,-999,-99.99,,,-99.99,,2013-04-29 15:43:00,
2013-04-29 10:53:00,70.0,-99.9,-100.00,SSW,202,6.0,12.0,-999,-99.99,,,-99.99,,2013-04-29 15:53:00,
2013-04-29 11:03:00,70.0,-99.9,-100.00,SSE,165,15.0,15.0,-999,-99.99,,,-99.99,,2013-04-29 16:03:00,
2013-04-29 11:13:00,70.0,-99.9,-100.00,SSE,165,15.0,15.0,-999,-99.99,,,-99.99,,2013-04-29 16:13:00,
2013-04-29 11:23:00,71.0,-99.9,-100.00,SW,217,9.0,11.0,-999,-99.99,,,-99.99,,2013-04-29 16:23:00,
2013-04-29 11:33:00,71.0,-99.9,-100.00,SSW,202,4.0,13.0,-999,-99.99,,,-99.99,,2013-04-29 16:33:00,
2013-04-29 11:42:00,71.0,-99.9,-100.00,SSW,202,4.0,13.0,-999,-99.99,,,-99.99,,2013-04-29 16:42:00,
2013-04-29 11:53:00,71.0,-99.9,-100.00,SSE,156,12.0,12.0,-999,-99.99,,,-99.99,,2013-04-29 16:53:00,
2013-04-29 12:02:00,73.0,-99.9,-100.00,WSW,240,11.0,13.0,-999,-99.99,,,-99.99,,2013-04-29 17:02:00,
2013-04-29 12:12:00,73.0,-99.9,-100.00,WSW,240,11.0,13.0,-999,-99.99,,,-99.99,,2013-04-29 17:12:00,
2013-04-29 12:23:00,70.0,-99.9,-100.00,SSW,192,8.0,16.0,-999,-99.99,,,-99.99,,2013-04-29 17:23:00,
2013-04-29 12:32:00,69.0,-99.9,-100.00,SSW,192,6.0,20.0,-999,-99.99,,,-99.99,,2013-04-29 17:32:00,
2013-04-29 12:42:00,69.0,-99.9,-100.00,SSW,192,6.0,20.0,-999,-99.99,,,-99.99,,2013-04-29 17:42:00,
2013-04-29 12:52:00,71.0,-99.9,-100.00,SW,232,6.0,14.0,-999,-99.99,,,-99.99,,2013-04-29 17:52:00,
2013-04-29 13:01:00,70.0,-99.9,-100.00,South,187,11.0,18.0,-999,-99.99,,,-99.99,,2013-04-29 18:01:00,
2013-04-29 13:13:00,70.0,-99.9,-100.00,South,187,11.0,18.0,-999,-99.99,,,-99.99,,2013-04-29 18:13:00,
2013-04-29 13:22:00,68.0,-99.9,-100.00,SW,227,10.0,18.0,-999,-99.99,,,-99.99,,2013-04-29 18:22:00,
2013-04-29 13:32:00,69.0,-99.9,-100.00,SW,222,8.0,15.0,-999,-99.99,,,-99.99,,2013-04-29 18:32:00,
2013-04-29 13:42:00,69.0,-99.9,-100.00,SW,222,8.0,15.0,-999,-99.99,,,-99.99,,2013-04-29 18:42:00,
2013-04-29 13:52:00,72.0,-99.9,-100.00,SW,216,7.0,19.0,-999,-99.99,,,-99.99,,2013-04-29 18:52:00,
2013-04-29 14:01:00,72.0,-99.9,-100.00,South,181,13.0,16.0,-999,-99.99,,,-99.99,,2013-04-29 19:01:00,
2013-04-29 14:12:00,72.0,-99.9,-100.00,South,181,13.0,16.0,-999,-99.99,,,-99.99,,2013-04-29 19:12:00,
2013-04-29 14:22:00,72.0,-99.9,-100.00,South,184,12.0,14.0,-999,-99.99,,,-99.99,,2013-04-29 19:22:00,
2013-04-29 14:32:00,70.0,-99.9,-100.00,SW,223,8.0,15.0,-999,-99.99,,,-99.99,,2013-04-29 19:32:00,
2013-04-29 14:42:00,70.0,-99.9,-100.00,SW,223,8.0,15.0,-999,-99.99,,,-99.99,,2013-04-29 19:42:00,
2013-04-29 14:52:00,71.0,-99.9,-100.00,South,170,10.0,15.0,-999,-99.99,,,-99.99,,2013-04-29 19:52:00,
2013-04-29 15:02:00,72.0,-99.9,-100.00,SSW,201,9.0,15.0,-999,-99.99,,,-99.99,,2013-04-29 20:02:00,
2013-04-29 15:12:00,72.0,-99.9,-100.00,SSW,201,9.0,15.0,-999,-99.99,,,-99.99,,2013-04-29 20:12:00,
2013-04-29 15:22:00,72.0,-99.9,-100.00,SSW,203,12.0,18.0,-999,-99.99,,,-99.99,,2013-04-29 20:22:00,
2013-04-29 15:32:00,72.0,-99.9,-100.00,SW,225,13.0,17.0,-999,-99.99,,,-99.99,,2013-04-29 20:32:00,
2013-04-29 15:43:00,72.0,-99.9,-100.00,SW,225,13.0,17.0,-999,-99.99,,,-99.99,,2013-04-29 20:43:00,
2013-04-29 15:52:00,71.0,-99.9,-100.00,SSW,210,7.0,16.0,-999,-99.99,,,-99.99,,2013-04-29 20:52:00,
2013-04-29 16:02:00,73.0,-99.9,-100.00,SSW,199,9.0,19.0,-999,-99.99,,,-99.99,,2013-04-29 21:02:00,
2013-04-29 16:12:00,73.0,-99.9,-100.00,SSW,199,9.0,19.0,-999,-99.99,,,-99.99,,2013-04-29 21:12:00,
2013-04-29 16:22:00,72.0,-99.9,-100.00,South,188,10.0,16.0,-999,-99.99,,,-99.99,,2013-04-29 21:22:00,
2013-04-29 16:33:00,72.0,-99.9,-100.00,SSW,201,11.0,21.0,-999,-99.99,,,-99.99,,2013-04-29 21:33:00,
2013-04-29 16:43:00,72.0,-99.9,-100.00,SSW,201,11.0,21.0,-999,-99.99,,,-99.99,,2013-04-29 21:43:00,
2013-04-29 16:53:00,71.0,-99.9,-100.00,SSW,202,9.0,18.0,-999,-99.99,,,-99.99,,2013-04-29 21:53:00,
2013-04-29 17:03:00,72.0,-99.9,-100.00,WSW,247,7.0,19.0,-999,-99.99,,,-99.99,,2013-04-29 22:03:00,
2013-04-29 17:13:00,72.0,-99.9,-100.00,WSW,247,7.0,19.0,-999,-99.99,,,-99.99,,2013-04-29 22:13:00,
2013-04-29 17:23:00,71.0,-99.9,-100.00,WSW,239,10.0,22.0,-999,-99.99,,,-99.99,,2013-04-29 22:23:00,
2013-04-29 17:33:00,72.0,-99.9,-100.00,SSW,192,15.0,17.0,-999,-99.99,,,-99.99,,2013-04-29 22:33:00,
2013-04-29 17:42:00,72.0,-99.9,-100.00,SSW,192,15.0,17.0,-999,-99.99,,,-99.99,,2013-04-29 22:42:00,
2013-04-29 17:53:00,71.0,-99.9,-100.00,South,170,11.0,19.0,-999,-99.99,,,-99.99,,2013-04-29 22:53:00,
2013-04-29 18:02:00,71.0,-99.9,-100.00,SSW,205,8.0,17.0,-999,-99.99,,,-99.99,,2013-04-29 23:02:00,
2013-04-29 18:12:00,71.0,-99.9,-100.00,SSW,205,8.0,17.0,-999,-99.99,,,-99.99,,2013-04-29 23:12:00,
2013-04-29 18:22:00,70.0,-99.9,-100.00,SSW,203,8.0,20.0,-999,-99.99,,,-99.99,,2013-04-29 23:22:00,
2013-04-29 18:32:00,69.0,-99.9,-100.00,SSW,205,11.0,20.0,-999,-99.99,,,-99.99,,2013-04-29 23:32:00,
2013-04-29 18:42:00,69.0,-99.9,-100.00,SSW,205,11.0,20.0,-999,-99.99,,,-99.99,,2013-04-29 23:42:00,
2013-04-29 18:53:00,69.0,-99.9,-100.00,SSW,195,11.0,20.0,-999,-99.99,,,-99.99,,2013-04-29 23:53:00,
2013-04-29 19:01:00,68.0,-99.9,-100.00,SSW,195,7.0,13.0,-999,-99.99,,,-99.99,,2013-04-30 00:01:00,
2013-04-29 19:12:00,68.0,-99.9,-100.00,SSW,195,7.0,13.0,-999,-99.99,,,-99.99,,2013-04-30 00:12:00,
2013-04-29 19:22:00,67.0,-99.9,-100.00,SSW,213,8.0,16.0,-999,-99.99,,,-99.99,,2013-04-30 00:22:00,
2013-04-29 19:32:00,67.0,-99.9,-100.00,SW,220,8.0,14.0,-999,-99.99,,,-99.99,,2013-04-30 00:32:00,
2013-04-29 19:42:00,67.0,-99.9,-100.00,SW,220,8.0,14.0,-999,-99.99,,,-99.99,,2013-04-30 00:42:00,
2013-04-29 19:52:00,67.0,-99.9,-100.00,South,181,5.0,15.0,-999,-99.99,,,-99.99,,2013-04-30 00:52:00,
2013-04-29 20:02:00,66.0,-99.9,-100.00,SW,225,7.0,16.0,-999,-99.99,,,-99.99,,2013-04-30 01:02:00,
2013-04-29 20:12:00,66.0,-99.9,-100.00,SW,225,7.0,16.0,-999,-99.99,,,-99.99,,2013-04-30 01:12:00,
2013-04-29 20:22:00,66.0,-99.9,-100.00,SSW,199,7.0,14.0,-999,-99.99,,,-99.99,,2013-04-30 01:22:00,
2013-04-29 20:32:00,66.0,-99.9,-100.00,South,175,8.0,17.0,-999,-99.99,,,-99.99,,2013-04-30 01:32:00,
2013-04-29 20:42:00,66.0,-99.9,-100.00,South,175,8.0,17.0,-999,-99.99,,,-99.99,,2013-04-30 01:42:00,
2013-04-29 20:52:00,65.0,-99.9,-100.00,South,191,6.0,16.0,-999,-99.99,,,-99.99,,2013-04-30 01:52:00,
2013-04-29 21:02:00,65.0,-99.9,-100.00,SSW,212,8.0,15.0,-999,-99.99,,,-99.99,,2013-04-30 02:02:00,
2013-04-29 21:11:00,65.0,-99.9,-100.00,SSW,201,9.0,16.0,-999,-99.99,,,-99.99,,2013-04-30 02:11:00,
2013-04-29 21:21:00,65.0,-99.9,-100.00,SSW,201,9.0,16.0,-999,-99.99,,,-99.99,,2013-04-30 02:21:00,
2013-04-29 21:32:00,65.0,-99.9,-100.00,SW,216,7.0,13.0,-999,-99.99,,,-99.99,,2013-04-30 02:32:00,
2013-04-29 21:42:00,65.0,-99.9,-100.00,SW,216,7.0,13.0,-999,-99.99,,,-99.99,,2013-04-30 02:42:00,
2013-04-29 21:52:00,64.0,-99.9,-100.00,South,181,10.0,14.0,-999,-99.99,,,-99.99,,2013-04-30 02:52:00,
2013-04-29 22:01:00,64.0,-99.9,-100.00,SW,236,6.0,14.0,-999,-99.99,,,-99.99,,2013-04-30 03:01:00,
2013-04-29 22:11:00,64.0,-99.9,-100.00,South,180,6.0,16.0,-999,-99.99,,,-99.99,,2013-04-30 03:11:00,
2013-04-29 22:22:00,64.0,-99.9,-100.00,South,180,6.0,16.0,-999,-99.99,,,-99.99,,2013-04-30 03:22:00,
2013-04-29 22:33:00,63.0,-99.9,-100.00,South,189,6.0,14.0,-999,-99.99,,,-99.99,,2013-04-30 03:33:00,
2013-04-29 22:43:00,63.0,-99.9,-100.00,South,189,6.0,14.0,-999,-99.99,,,-99.99,,2013-04-30 03:43:00,
2013-04-29 22:53:00,63.0,-99.9,-100.00,SW,220,8.0,11.0,-999,-99.99,,,-99.99,,2013-04-30 03:53:00,
2013-04-29 23:02:00,62.0,-99.9,-100.00,South,191,8.0,13.0,-999,-99.99,,,-99.99,,2013-04-30 04:02:00,
2013-04-29 23:12:00,62.0,-99.9,-100.00,SW,216,11.0,13.0,-999,-99.99,,,-99.99,,2013-04-30 04:12:00,
2013-04-29 23:22:00,62.0,-99.9,-100.00,SW,216,11.0,13.0,-999,-99.99,,,-99.99,,2013-04-30 04:22:00,
2013-04-29 23:32:00,61.0,-99.9,-100.00,South,189,12.0,13.0,-999,-99.99,,,-99.99,,2013-04-30 04:32:00,
2013-04-29 23:42:00,61.0,-99.9,-100.00,South,189,12.0,13.0,-999,-99.99,,,-99.99,,2013-04-30 04:42:00,
2013-04-29 23:52:00,61.0,-99.9,-100.00,SSW,192,9.0,13.0,-999,-99.99,,,-99.99,,2013-04-30 04:52:00,